Location: Arran
(51.9410°N, 101.7372°W)
Time: 21:48:56
(UTC+00:00)

Oscar 19 - Visible Passes

Search period start: 29 November 2023 00:00
Search period end: 09 December 2023 00:00
Orbit: 771 x 789 km, 98.9° (Epoch: 29 November)

Date Brightness Start Highest point End Pass type
(mag) Time Alt. Az. Time Alt. Az. Time Alt. Az.
29 Nov 13.2 10:17:53 10° NE 10:21:18 18° E 10:24:41 10° SE visible
29 Nov 10.5 11:56:02 10° NNE 12:01:12 82° WNW 12:06:21 10° SSW visible
29 Nov 12.0 13:36:29 10° NNW 13:39:44 17° NW 13:42:58 10° W visible
29 Nov 12.7 23:19:08 10° SSW 23:23:39 31° W 23:28:12 10° NNW visible
30 Nov 11.2 11:23:44 10° NNE 11:28:50 57° ESE 11:33:53 10° S visible
30 Nov 11.5 13:03:30 10° N 13:07:47 27° WNW 13:12:05 10° WSW visible
01 Dec 12.3 10:51:41 10° NNE 10:56:17 32° E 11:00:53 10° SSE visible
01 Dec 10.9 12:30:49 10° N 12:35:42 45° WNW 12:40:36 10° SW visible
01 Dec 13.5 23:55:21 10° SW 23:58:39 17° W 00:01:58 10° NW visible
02 Dec 13.1 10:20:06 10° NE 10:23:37 18° E 10:27:06 10° SE visible
02 Dec 10.5 11:58:19 10° NNE 12:03:29 79° WNW 12:08:38 10° SSW visible
02 Dec 12.0 13:38:49 10° NNW 13:42:00 17° NW 13:45:10 10° W visible
02 Dec 12.8 23:21:28 10° SSW 23:25:57 30° W 23:30:27 10° NNW visible
03 Dec 11.1 11:26:01 10° NNE 11:31:07 59° ESE 11:36:12 10° S visible
03 Dec 11.5 13:05:49 10° N 13:10:03 27° WNW 13:14:19 10° WSW visible
04 Dec 12.2 10:53:57 10° NNE 10:58:36 33° E 11:03:13 10° SSE visible
04 Dec 10.9 12:33:06 10° N 12:37:59 44° WNW 12:42:51 10° SW visible
04 Dec 13.5 23:57:44 10° SW 00:00:58 17° W 00:04:11 10° NW visible
05 Dec 13.1 10:22:19 10° NE 10:25:55 19° E 10:29:30 10° SE visible
05 Dec 10.5 12:00:36 10° NNE 12:05:46 77° WNW 12:10:56 10° SSW visible
05 Dec 12.1 13:41:08 10° NNW 13:44:14 16° NW 13:47:22 10° W visible
05 Dec 12.8 23:23:49 10° SSW 23:28:15 29° W 23:32:42 10° NW visible
06 Dec 11.1 11:28:16 10° NNE 11:33:24 61° ESE 11:38:31 10° S visible
06 Dec 11.5 13:08:07 10° N 13:12:19 26° WNW 13:16:32 10° WSW visible
07 Dec 12.1 10:56:11 10° NNE 11:00:53 34° E 11:05:34 10° SSE visible
07 Dec 10.9 12:35:23 10° N 12:40:15 43° WNW 12:45:06 10° SW visible
08 Dec 13.5 00:00:09 10° SW 00:03:15 16° W 00:06:22 10° NW visible
08 Dec 13.0 10:24:31 10° NE 10:28:13 19° E 10:31:54 10° SE visible
08 Dec 10.5 12:02:52 10° NNE 12:08:02 75° WNW 12:13:12 10° SSW visible
08 Dec 12.1 13:43:27 10° NNW 13:46:29 16° NW 13:49:32 10° W visible
08 Dec 12.9 23:26:08 10° SSW 23:30:31 28° W 23:34:57 10° NW visible
